Theta_e
339 338 339 338 339 338 338 337 336 336 334 332 332 330 330 330 330 327 326 324 322 320 317 316 316 315 314 313 311 309 309 309 309 309 309 308 309 309 308 310 312 313 314 316 320 324 328 331 333 332 329 328 328 327 325 324 325 326 326 324 323 324 322 320 319 319 319 318 319 320 320 321 321 321 322 323 325 326 327 328 329 329 329 330 331
338 339 340 338 338 337 336 336 335 334 333 332 331 330 331 330 328 326 325 325 324 321 320 318 316 315 314 313 311 310 309 308 309 308 309 309 309 309 308 307 307 313 313 314 315 319 323 327 330 333 332 333 331 327 327 325 325 325 325 325 324 324 322 321 320 320 319 318 319 319 319 320 320 320 321 322 323 324 326 325 325 326 327 327 328
338 337 337 338 337 336 336 336 334 334 332 332 331 331 330 328 327 327 326 325 324 321 319 320 320 317 314 314 313 313 312 313 312 311 309 308 309 309 311 306 306 308 312 312 313 316 319 322 327 331 332 333 333 332 330 327 326 325 325 326 326 325 324 323 322 320 319 319 319 319 319 319 319 319 319 320 321 324 323 323 323 324 325 325 325
333 332 330 331 333 332 329 332 332 331 330 330 328 326 324 323 325 324 324 324 323 320 319 321 321 319 317 316 314 316 316 315 314 312 310 309 309 309 309 310 307 306 309 311 312 313 316 319 322 325 329 331 332 333 333 332 331 325 325 324 325 326 325 324 323 321 320 320 319 318 318 317 318 319 318 319 320 323 321 321 321 321 322 323 322
328 327 327 328 327 325 323 323 324 324 321 320 321 321 319 319 318 318 320 321 321 319 319 320 320 319 318 317 317 317 316 315 315 313 311 310 308 308 308 309 309 309 308 308 310 311 313 316 318 320 324 327 329 330 331 333 331 330 326 325 324 325 326 326 324 322 321 320 320 319 318 318 318 318 319 318 318 320 320 320 319 319 320 321 321
324 324 324 323 322 320 320 319 319 319 318 319 318 318 319 318 315 318 315 318 318 317 318 321 320 319 319 317 316 316 315 314 313 312 310 309 308 308 307 307 307 308 310 309 309 310 311 313 314 317 320 322 324 326 328 330 331 331 330 325 325 326 326 328 326 323 322 321 321 319 319 318 319 318 318 319 318 318 319 319 319 319 318 319 321
320 320 320 319 318 317 318 319 320 320 318 318 318 317 316 314 314 317 318 316 314 313 315 316 315 316 316 315 316 315 314 313 312 311 309 309 307 308 307 306 306 307 309 307 307 308 308 311 313 314 317 319 320 322 324 326 328 330 331 329 328 328 328 329 327 325 323 323 321 321 320 319 318 318 318 318 319 318 319 319 319 319 318 318 318
315 317 316 316 315 315 315 316 317 316 316 316 317 316 314 312 313 316 316 314 313 312 311 312 314 315 315 315 315 314 313 313 312 311 310 308 308 307 307 306 307 306 304 306 307 307 305 308 310 311 313 313 315 318 321 324 325 326 328 330 328 327 327 326 326 326 325 324 322 321 320 319 318 318 317 317 318 318 319 318 318 318 318 318 318
313 315 316 314 314 314 314 315 315 313 312 312 313 314 314 312 309 309 313 313 313 311 310 308 310 312 313 313 313 312 311 312 311 310 309 307 307 306 306 306 306 303 306 306 306 307 307 306 307 308 309 310 311 313 315 319 322 324 325 328 329 329 326 325 326 326 325 325 323 321 320 319 318 317 318 317 317 318 318 318 318 318 318 318 317
309 311 311 311 311 312 313 315 315 313 312 311 310 310 310 312 307 306 306 308 307 306 305 303 304 306 309 311 310 309 310 310 309 305 306 306 305 306 305 304 305 305 304 305 306 305 306 307 307 308 308 308 309 311 313 314 315 318 321 323 325 326 325 325 326 326 327 323 323 323 321 319 318 318 318 318 317 317 317 318 318 318 317 317 317
306 307 308 307 308 308 309 310 310 309 309 309 309 309 309 308 309 306 303 302 301 301 300 300 301 302 304 307 309 309 309 308 306 305 304 305 305 303 306 305 304 305 304 304 304 304 305 306 305 306 306 308 308 310 311 312 313 314 315 316 318 322 324 325 326 326 326 327 324 323 322 321 319 318 318 318 317 317 317 317 317 317 317 317 317
304 305 304 304 305 306 305 305 305 305 304 304 303 304 305 306 306 307 306 304 303 301 300 299 301 304 306 309 310 308 307 306 305 304 305 306 306 304 303 303 304 304 304 304 304 305 305 305 305 305 306 307 308 307 308 309 309 311 313 314 315 316 318 320 322 323 325 326 325 324 322 321 321 320 319 318 318 317 317 317 317 316 316 317 317
301 303 304 302 303 303 303 303 303 303 302 302 302 302 303 305 305 304 304 302 299 299 300 301 304 307 308 309 308 308 306 304 303 304 306 306 304 302 303 303 304 303 303 303 304 304 304 304 304 305 305 306 305 306 307 307 306 308 310 311 313 314 315 316 317 319 321 323 324 325 325 321 321 320 320 319 319 318 317 317 317 317 317 317 317
298 300 301 301 301 301 302 302 303 303 303 303 303 302 303 303 305 305 304 301 299 301 301 304 305 302 303 305 306 309 306 303 302 305 307 305 302 303 304 302 302 302 303 303 304 304 303 303 304 304 305 304 304 305 306 306 306 307 308 310 311 313 313 314 315 315 316 318 321 324 326 325 321 321 321 320 320 319 318 318 318 318 317 317 317
296 296 297 298 299 299 300 301 301 302 301 301 301 301 302 302 303 304 304 304 303 302 302 302 300 301 303 302 303 300 305 302 305 304 305 301 302 304 303 302 302 303 302 303 303 302 303 303 303 303 304 304 304 304 304 302 303 302 303 305 307 310 312 313 313 313 314 314 316 320 323 325 326 321 321 321 320 319 318 319 319 319 319 318 317
294 295 295 295 296 296 297 298 298 300 300 299 299 299 300 300 301 301 302 302 301 301 301 301 299 299 299 299 299 299 299 302 298 301 303 300 304 304 301 302 303 304 302 301 302 303 303 303 302 303 303 303 303 303 303 304 302 299 298 300 301 305 308 311 313 313 314 314 315 315 318 322 324 326 322 322 322 320 320 320 320 320 319 319 318
293 293 293 293 294 294 294 294 295 296 297 296 296 296 297 298 299 299 299 300 299 300 300 301 300 300 298 298 299 299 297 296 296 300 301 302 303 302 301 302 301 300 300 301 302 303 302 302 302 302 303 303 303 303 302 303 303 303 301 296 297 300 303 307 309 311 312 313 313 313 314 316 318 322 324 323 322 322 322 321 321 320 321 320 319
292 293 293 292 293 293 293 293 293 293 294 294 294 294 294 295 296 297 297 299 299 298 298 300 300 300 300 298 297 294 293 295 296 294 300 301 302 301 301 302 300 300 300 301 301 301 301 301 302 302 302 302 302 302 302 302 301 303 302 302 304 303 304 305 309 311 312 313 313 313 314 314 315 317 321 323 323 322 322 323 322 321 322 321 320
292 292 292 292 292 292 293 292 292 292 292 292 292 292 293 294 294 294 294 295 297 294 295 296 299 298 299 299 299 298 297 295 293 294 292 297 299 299 300 301 300 299 299 299 299 299 299 299 300 301 301 302 302 301 301 301 301 300 301 302 304 304 305 306 306 309 311 312 312 313 313 314 314 315 316 318 321 322 322 322 322 322 321 321 321
291 291 292 292 292 292 292 292 291 291 291 291 291 291 292 293 293 293 293 293 293 292 291 292 291 292 295 295 297 297 298 297 296 293 292 290 292 298 300 298 298 298 299 297 297 298 298 298 299 299 299 300 300 301 301 301 301 301 301 301 303 304 305 305 306 307 308 310 313 313 313 314 314 314 315 315 317 318 321 323 323 323 322 321 321
291 291 291 291 291 291 291 291 291 290 290 291 291 291 291 291 291 290 291 291 292 292 291 290 291 290 291 291 292 292 294 296 296 294 290 289 289 290 291 294 295 295 296 296 297 296 296 297 297 299 299 300 300 301 300 300 300 300 301 300 301 304 304 304 303 303 304 305 307 309 312 314 314 315 315 315 315 316 317 320 323 323 323 322 322
290 290 290 290 290 290 290 290 290 290 290 290 291 290 291 291 291 291 291 290 291 291 290 290 291 291 291 290 289 289 290 290 290 290 290 291 288 287 288 287 286 290 293 295 294 294 295 296 297 298 298 299 300 300 300 300 300 300 300 298 299 301 301 301 302 302 302 303 304 305 307 309 311 313 315 315 315 315 316 317 318 320 322 322 322
289 289 290 290 290 289 289 289 289 289 289 289 289 289 289 289 290 290 290 290 289 290 290 290 290 290 290 289 289 288 288 287 287 288 288 286 286 286 287 287 287 287 291 293 292 293 294 296 296 297 297 297 298 299 300 300 297 298 295 296 296 297 298 300 301 302 302 302 303 304 306 307 309 310 311 313 314 315 316 316 316 317 318 321 322
289 288 288 289 289 288 289 289 288 288 288 288 288 289 289 289 289 289 289 289 289 289 289 288 288 288 289 289 289 289 289 288 289 289 288 287 286 285 286 287 287 287 289 290 292 292 292 292 294 296 296 297 297 298 299 299 298 294 294 295 295 297 299 300 301 300 300 301 301 302 303 304 304 306 309 312 313 314 314 315 315 315 316 317 321
287 287 287 287 288 287 287 287 287 287 287 288 288 288 288 288 288 288 288 287 287 288 287 287 288 286 287 288 288 288 288 289 289 288 288 289 287 284 285 287 284 285 287 289 287 291 291 292 293 293 294 295 296 297 297 298 297 295 293 295 296 296 297 298 298 299 299 300 301 302 302 303 304 305 306 307 310 313 314 314 315 316 316 315 316
286 286 287 287 287 287 287 287 287 287 287 287 287 287 287 287 287 287 287 287 287 287 287 287 287 287 287 287 287 287 288 288 288 288 287 287 285 285 284 285 285 284 286 286 290 287 289 292 294 293 294 295 294 296 296 296 297 294 291 293 296 297 297 297 298 299 300 301 301 301 301 301 302 303 304 306 308 309 311 314 314 315 316 317 317
286 286 286 286 286 286 286 286 286 286 286 286 286 286 286 286 286 286 286 286 286 286 286 286 286 286 286 286 286 287 287 287 287 287 288 287 286 285 284 282 282 284 283 285 285 286 286 289 291 292 294 294 294 294 295 296 294 294 291 293 293 294 296 297 298 300 300 300 301 301 301 301 301 302 303 303 305 306 308 309 312 314 314 315 316
286 285 285 285 285 285 285 285 285 285 285 285 285 285 285 285 285 285 285 286 285 285 285 285 285 285 285 286 285 285 286 286 287 286 287 287 287 287 286 284 282 279 283 282 284 284 288 286 290 292 293 294 295 294 293 292 293 292 291 292 293 293 295 296 298 299 299 299 299 300 300 300 301 302 302 302 303 304 305 306 307 307 307 307 308
285 285 284 284 284 284 284 284 284 284 284 284 283 283 284 284 283 283 283 284 284 284 284 284 284 285 285 284 284 285 285 286 285 286 286 286 286 286 286 285 284 281 279 280 282 283 286 287 284 290 292 292 290 292 290 290 290 290 291 291 291 292 293 295 296 298 298 298 298 299 299 299 300 301 301 302 303 303 303 304 305 305 306 306 307
284 284 284 283 283 283 283 282 283 283 282 282 282 282 283 283 283 283 283 283 283 283 283 283 283 284 283 284 284 284 284 284 284 285 285 285 285 285 285 285 285 282 282 280 280 284 284 287 287 285 291 290 289 289 289 289 290 290 290 290 291 291 293 293 295 295 296 297 297 297 298 298 298 299 299 300 301 302 303 304 304 305 306 307 308
282 282 282 281 281 281 282 281 281 281 281 281 281 281 281 281 282 282 282 281 281 282 282 282 282 282 282 282 283 283 283 283 283 284 284 284 284 284 284 285 284 284 283 282 279 283 286 284 286 288 287 288 288 288 289 289 289 289 289 289 291 291 291 292 292 293 294 295 295 296 297 298 298 298 299 299 300 301 302 302 302 303 304 306 308
281 281 281 280 280 280 280 280 280 280 280 280 280 280 280 280 280 280 280 280 280 280 281 281 281 281 281 281 281 281 282 282 282 283 283 283 283 283 283 283 283 283 283 281 280 280 285 285 286 287 288 288 288 287 287 288 288 289 289 289 290 290 290 290 291 292 292 293 294 295 296 297 297 298 297 298 299 300 301 301 302 302 303 303 305
280 280 279 279 279 279 279 279 279 279 279 278 279 279 279 278 278 279 279 279 278 279 279 279 280 280 280 279 279 280 281 280 281 281 281 282 282 282 282 282 282 282 282 281 279 279 282 285 285 285 287 287 286 287 286 287 287 288 288 288 288 288 289 289 290 290 292 292 293 294 294 295 296 297 297 298 298 299 299 300 301 302 302 303 303
278 278 278 278 278 278 278 278 278 278 277 277 277 277 277 277 277 278 278 277 277 277 278 277 278 279 279 278 278 279 280 279 279 279 279 280 280 280 280 281 281 281 282 280 279 279 278 282 282 284 284 286 284 287 286 285 285 286 286 287 288 288 288 288 288 289 291 291 292 292 293 295 296 297 297 297 298 299 300 300 300 300 301 302 302
278 277 277 277 277 277 277 276 276 276 276 276 276 276 276 275 275 276 276 276 276 276 276 276 277 277 277 277 277 278 278 277 278 278 279 278 279 279 279 279 279 279 280 280 279 278 278 278 281 281 282 283 283 284 285 285 285 286 285 286 286 287 288 288 288 289 290 291 292 293 293 294 295 295 296 296 297 298 298 299 299 299 299 300 301
276 277 276 276 276 275 275 275 275 275 275 275 274 275 275 274 274 275 275 275 276 276 276 276 276 276 276 276 276 276 277 276 276 277 278 278 278 277 277 278 278 278 279 279 279 278 278 277 279 280 281 281 282 284 284 285 284 284 285 285 286 286 287 288 288 288 289 291 291 292 292 293 293 294 294 295 296 296 297 298 298 298 299 299 300
275 275 275 275 274 274 274 274 274 274 274 274 273 274 274 274 274 274 275 275 275 276 276 276 276 275 275 275 275 276 276 275 276 276 276 276 276 276 276 277 277 278 278 278 278 278 277 276 277 279 280 281 282 282 283 282 283 283 284 284 285 285 286 287 287 288 289 290 290 290 291 291 292 293 294 294 295 295 296 296 297 298 298 298 298
274 274 273 273 274 273 273 273 273 273 273 273 273 273 273 273 274 275 275 275 275 275 275 275 275 275 275 275 275 275 275 274 274 275 275 275 275 275 275 276 276 277 276 277 277 277 277 276 277 276 278 278 279 279 281 281 281 281 282 284 284 285 285 285 286 287 288 288 288 289 290 291 292 293 293 293 294 294 294 294 295 296 297 296 297
272 273 272 272 272 272 272 272 272 272 272 272 272 272 272 273 274 275 275 275 275 275 275 275 275 275 275 275 275 275 274 274 274 274 274 274 274 274 275 275 275 275 275 275 275 275 275 275 275 276 276 277 278 277 279 281 281 281 280 280 281 283 285 284 284 285 286 287 288 290 289 289 289 289 290 290 291 292 293 293 294 294 294 295 296
271 271 271 271 271 271 271 271 271 271 271 271 271 272 273 274 274 274 274 274 274 274 274 275 275 275 274 274 274 274 274 274 274 274 274 273 274 273 274 274 274 274 273 274 273 273 273 273 273 273 274 274 275 277 279 279 279 279 280 280 278 279 281 283 284 284 285 285 285 286 288 288 289 290 290 291 292 292 292 292 293 293 293 294 294
270 270 270 270 270 270 270 270 270 270 270 270 270 271 273 274 274 274 274 273 273 274 274 274 274 274 274 274 274 274 274 274 274 274 274 274 273 272 273 273 273 272 272 271 271 271 271 272 272 273 273 273 274 274 274 274 274 274 277 277 276 278 279 280 281 284 285 284 285 286 286 287 286 287 288 288 289 290 291 292 293 292 292 293 294
269 269 269 269 269 269 269 269 269 269 270 270 269 271 274 274 274 274 274 273 274 273 273 273 273 273 273 274 274 274 274 273 273 273 274 274 274 274 273 273 272 271 271 270 270 271 271 270 271 271 270 271 272 273 273 274 275 276 275 275 274 276 277 276 277 279 281 283 282 283 285 287 287 287 288 287 289 290 290 291 290 291 291 293 293
268 268 268 268 268 269 268 268 268 269 269 269 269 272 273 274 274 273 273 273 273 273 272 272 272 272 273 273 273 273 272 272 272 273 274 274 274 274 274 274 274 272 271 270 270 271 270 269 270 270 270 270 271 273 273 273 274 274 275 275 275 275 275 274 273 278 282 281 280 280 280 283 284 283 284 285 286 287 288 288 290 291 292 292 292
267 267 267 267 267 268 267 268 268 268 268 269 270 272 273 274 275 274 273 272 272 272 272 272 272 272 271 271 272 272 271 272 272 272 272 273 273 273 274 274 274 274 275 273 271 270 270 270 270 270 270 270 271 272 273 273 273 274 274 274 274 273 273 273 274 274 279 282 279 278 278 281 282 281 281 282 284 285 286 289 290 290 291 292 291
267 267 267 266 267 267 266 266 266 267 268 268 270 271 273 274 274 274 273 272 272 272 272 272 271 271 270 270 270 271 271 272 271 271 271 271 272 273 273 273 273 274 275 276 276 274 273 272 271 271 271 272 272 272 274 274 275 273 273 273 273 274 274 274 274 275 277 280 278 277 276 279 281 281 281 283 285 285 286 288 289 290 291 291 291
266 265 265 265 265 265 265 265 266 266 267 267 270 271 272 273 274 274 273 272 272 271 271 271 270 270 270 270 270 270 271 271 271 271 271 271 271 271 271 271 272 273 275 276 276 276 276 274 273 271 273 274 272 273 275 276 274 273 273 273 274 274 274 274 276 276 278 279 276 276 276 278 281 280 280 282 284 285 286 287 288 289 289 291 291
266 265 265 264 264 264 264 264 264 264 265 267 270 271 272 273 274 274 272 271 271 270 270 270 270 270 270 270 270 270 270 271 271 272 271 271 271 271 271 271 272 273 273 274 274 275 275 275 275 274 274 275 275 275 276 276 275 275 276 275 276 276 276 277 276 277 277 279 278 276 273 276 280 280 280 282 284 284 285 287 288 289 289 290 290
265 265 265 264 263 263 263 263 263 263 265 267 268 270 271 272 273 271 270 270 269 269 269 270 270 270 270 270 270 270 270 271 272 274 274 273 272 271 271 272 272 273 273 276 277 278 277 276 276 276 276 277 279 278 278 278 278 278 278 278 277 276 274 273 272 274 274 277 278 276 274 275 278 277 277 280 282 282 284 285 287 288 289 289 290
264 264 263 263 263 263 262 262 262 262 263 265 267 269 271 272 271 270 270 269 269 269 269 270 270 270 270 271 271 270 271 271 273 275 275 275 272 272 272 272 272 273 273 276 278 279 279 279 280 280 280 280 281 281 281 281 279 278 277 274 273 274 272 270 271 272 272 275 277 277 275 273 276 277 276 278 279 280 281 282 284 287 288 289 289
263 263 263 262 262 262 262 261 262 261 262 264 267 269 270 271 271 270 269 269 268 269 269 270 270 270 271 272 272 271 271 271 274 275 276 275 273 273 273 272 272 272 273 275 276 277 279 279 279 279 279 280 280 280 280 280 280 279 275 272 273 273 271 271 270 271 272 273 274 277 274 273 276 277 276 277 278 278 279 281 283 285 287 287 288
262 263 262 262 262 262 262 261 262 261 262 263 266 268 269 270 271 270 269 269 268 268 269 269 270 270 271 272 273 273 273 274 276 277 277 276 274 274 273 273 272 272 274 275 275 275 275 276 276 276 277 277 277 277 277 279 279 278 277 275 275 273 271 271 271 271 269 271 275 277 272 273 274 275 275 273 272 276 280 281 281 283 284 285 286
Wind_Speed
5 5 5 7 7 6 5 5 5 4 4 4 4 4 3 3 3 2 2 2 2 2 2 2 0 1 2 2 2 2 2 2 2 2 1 2 2 2 2 3 5 7 8 9 10 11 12 13 12 10 8 9 10 9 5 4 7 10 8 3 5 5 3 3 1 2 1 1 3 3 3 5 4 5 4 1 2 2 3 4 6 7 7 8 7
5 3 4 5 5 5 4 4 5 3 3 4 4 4 4 3 2 2 2 2 2 1 1 2 1 1 2 3 3 3 2 3 2 2 2 2 2 0 4 2 2 4 5 7 8 9 11 13 13 14 10 10 10 9 8 6 7 7 7 6 5 6 5 5 6 4 2 2 3 3 3 4 3 4 4 6 1 2 3 3 2 3 5 5 5
2 3 5 6 7 4 3 2 3 2 2 3 2 3 1 1 1 1 1 1 1 1 1 1 1 1 1 2 3 3 3 3 3 3 3 3 3 3 1 4 1 2 4 5 6 8 9 11 12 13 14 13 12 11 10 9 9 6 7 10 9 7 7 8 8 5 4 4 4 3 3 3 4 3 4 5 4 4 2 3 3 3 2 3 4
5 5 5 5 5 5 6 4 1 1 1 1 1 3 4 4 4 3 2 0 1 0 2 2 1 2 2 2 2 3 4 4 4 4 3 3 3 3 3 2 4 1 2 4 6 7 8 8 10 11 12 14 15 15 13 12 13 6 6 8 11 8 10 9 10 8 7 5 4 4 4 1 3 5 2 4 4 2 1 1 1 1 2 0 1
6 6 7 6 5 5 6 6 5 4 4 5 5 3 4 2 3 3 2 2 2 2 1 2 2 2 2 3 3 4 4 5 5 4 5 4 4 4 4 4 4 4 5 1 3 4 6 7 8 9 10 10 12 13 15 16 14 13 9 8 7 9 11 10 10 9 8 6 6 6 4 4 4 5 5 2 5 6 5 2 2 2 3 4 3
7 8 7 7 7 7 6 5 4 5 5 4 5 4 4 4 4 1 2 1 2 2 2 2 1 1 1 1 2 2 3 4 4 4 4 4 4 4 4 4 4 4 2 4 3 2 3 6 7 8 9 9 9 10 12 15 15 15 13 10 8 11 11 13 10 9 10 8 8 7 6 5 6 5 6 7 5 7 8 9 8 6 5 6 7
8 7 6 7 7 6 7 6 5 5 5 5 4 5 5 4 1 1 2 3 2 2 3 2 2 1 1 1 2 2 3 3 2 2 2 3 3 3 4 4 4 4 3 4 3 5 2 5 8 8 9 9 9 10 10 12 13 14 16 14 11 12 13 14 9 11 11 9 10 9 8 6 6 5 6 6 8 7 8 9 8 8 8 8 8
9 8 8 8 7 7 7 6 7 6 6 5 4 5 4 4 3 2 2 3 2 2 2 2 2 2 2 2 2 2 3 3 2 3 2 2 2 3 3 4 4 4 5 4 4 2 3 3 5 7 8 8 9 10 11 11 11 11 13 14 13 13 13 14 6 12 11 12 11 9 7 7 5 5 5 6 8 9 10 10 9 8 8 9 9
11 10 9 9 9 8 7 7 7 7 5 6 7 5 3 3 3 4 2 1 1 1 1 2 3 4 3 2 2 3 3 3 3 2 1 2 3 3 3 3 3 3 3 4 4 5 2 1 4 5 6 6 7 9 10 11 11 11 11 12 12 14 13 12 15 13 12 12 12 9 8 7 6 5 6 7 7 8 10 12 10 9 9 10 9
10 9 9 10 8 7 7 7 7 7 6 6 7 5 5 5 4 4 5 4 3 3 3 3 3 4 3 3 2 2 3 3 2 2 2 3 3 3 3 3 3 3 3 3 4 4 5 3 4 6 6 4 6 8 9 10 11 11 12 12 13 13 12 13 14 16 16 11 8 11 10 8 7 7 7 8 7 8 10 12 11 10 10 10 10
9 8 9 8 8 7 8 9 7 7 7 6 6 6 6 5 4 5 5 4 4 3 2 2 2 3 4 3 2 3 3 2 2 2 2 3 3 3 2 3 3 2 3 3 3 4 4 4 5 5 4 2 6 8 9 10 10 11 12 13 13 13 13 13 14 16 16 17 14 14 12 11 9 8 9 10 11 11 10 10 12 11 11 11 11
9 9 9 8 7 7 8 8 7 6 7 8 7 6 5 6 7 6 5 5 3 2 2 3 3 3 3 3 3 3 3 1 1 1 2 3 3 3 3 3 2 3 3 2 3 3 3 4 4 4 5 5 4 7 8 9 9 11 12 12 13 14 14 14 14 15 16 16 17 15 13 13 14 15 13 12 13 11 11 12 12 12 12 12 12
11 10 10 8 8 7 7 7 6 6 7 6 5 5 4 3 3 3 4 5 5 5 4 3 3 2 3 4 3 3 2 1 2 2 3 4 3 2 3 3 3 3 3 2 3 3 3 4 4 4 5 5 5 4 6 8 9 10 11 12 12 13 14 14 14 14 15 16 16 17 17 14 14 14 14 14 15 13 12 12 13 13 13 13 13
11 11 11 11 10 9 9 9 8 8 8 8 9 8 9 7 5 4 5 5 5 5 6 5 1 4 5 5 3 1 4 2 2 4 6 4 2 2 3 3 3 3 3 4 3 3 4 4 4 5 4 4 5 5 5 5 5 5 9 12 13 14 14 15 15 15 15 16 17 17 18 17 15 16 16 15 17 15 14 14 13 13 13 13 14
11 10 9 10 10 9 8 8 9 7 8 9 10 10 9 9 9 6 2 4 4 6 7 7 4 5 4 4 3 6 2 3 2 9 8 2 1 3 2 2 3 4 4 4 5 6 5 5 5 5 5 5 5 5 5 6 6 6 9 12 13 15 15 16 16 16 16 16 17 18 18 18 18 18 17 16 19 18 14 16 16 16 16 15 14
11 11 10 10 10 9 8 9 9 9 8 8 10 10 9 9 9 9 7 5 5 7 8 8 7 8 4 4 5 3 4 1 9 8 2 1 3 5 3 3 5 5 5 6 7 8 7 6 6 6 6 6 6 6 5 6 7 8 9 10 11 13 14 16 16 17 17 17 17 17 19 19 18 18 19 18 19 21 17 18 18 18 16 16 15
11 12 10 11 10 10 9 9 9 9 8 9 9 9 9 8 9 9 9 6 6 6 7 8 10 8 6 5 2 2 4 6 9 4 3 6 6 3 2 4 5 5 5 7 8 7 7 7 7 6 7 7 6 6 6 6 6 6 7 8 9 10 12 14 16 17 18 18 18 18 18 19 19 19 18 19 21 22 20 18 22 18 18 17 16
10 11 11 10 11 10 10 10 10 9 9 9 8 9 10 10 10 8 9 9 6 7 6 6 7 8 7 5 3 4 6 7 6 4 7 5 1 3 3 4 3 5 7 7 7 7 7 7 7 8 7 7 7 7 7 7 6 6 6 7 9 10 11 14 15 16 17 18 18 18 18 19 20 20 20 19 19 21 21 21 19 18 19 18 17
11 11 11 10 10 10 10 10 9 8 9 9 9 10 9 9 9 9 9 8 8 8 8 8 4 7 6 5 4 3 3 5 5 7 8 1 1 3 4 3 4 7 7 6 7 7 7 7 9 9 9 8 7 7 7 7 8 8 9 12 14 13 14 15 15 16 17 17 17 18 18 19 19 20 21 21 21 21 21 21 19 19 18 18 18
10 10 10 10 9 10 9 9 9 9 8 8 9 8 7 8 9 9 8 8 9 8 7 7 7 7 8 7 6 5 3 3 4 5 6 9 8 3 0 5 7 6 4 6 7 7 9 8 8 9 8 8 8 7 7 7 7 7 7 9 12 14 14 15 15 16 17 17 18 18 18 19 19 20 21 21 22 22 22 22 21 21 21 20 19
10 10 11 10 10 9 9 9 9 8 7 7 7 8 9 9 9 9 8 8 7 7 6 6 6 6 7 7 7 7 5 3 2 5 6 9 10 8 9 6 6 5 5 6 5 7 8 8 8 8 7 8 7 7 7 7 6 6 7 9 12 14 15 16 16 16 17 18 18 19 19 19 19 20 21 21 21 21 22 22 23 22 23 22 21
9 10 10 10 10 10 9 9 9 8 7 8 7 8 8 8 8 8 8 7 6 6 6 5 5 5 5 5 5 6 5 5 5 7 6 5 9 12 10 12 11 7 7 4 7 8 7 7 8 7 7 7 7 7 7 6 6 5 6 9 12 12 13 14 14 15 16 17 18 18 19 19 19 20 20 21 21 21 21 22 23 22 22 25 24
7 8 9 9 9 9 8 8 8 7 7 8 7 7 7 7 7 7 9 8 7 6 6 7 5 5 6 5 5 5 5 6 6 6 6 7 9 10 11 10 10 11 4 5 8 8 6 5 7 6 6 7 7 6 6 7 7 5 6 8 9 10 11 12 13 14 14 16 17 18 19 19 19 19 20 21 21 21 21 22 22 22 21 21 25
7 7 8 8 7 7 8 7 7 7 7 7 7 7 6 6 6 6 6 7 7 6 6 7 8 5 5 5 4 4 4 4 5 5 6 6 7 10 10 11 11 7 5 7 6 6 5 7 6 5 6 6 6 7 6 6 6 4 5 8 8 10 11 12 13 13 14 14 15 16 17 18 19 20 20 20 20 21 21 21 22 22 22 21 22
7 7 8 8 7 7 7 7 6 7 7 7 6 7 6 5 6 6 6 7 6 6 5 6 6 6 5 4 4 4 4 4 4 5 5 6 6 9 8 8 11 12 7 5 4 3 5 6 3 5 6 6 7 7 6 6 7 5 7 7 8 9 10 11 13 14 14 15 15 16 16 16 17 18 20 20 21 21 21 21 21 22 22 23 23
6 6 6 6 6 6 6 7 7 6 7 6 6 6 6 4 5 6 6 5 5 6 4 6 5 6 5 5 5 4 4 4 4 5 5 6 7 7 10 8 9 12 9 6 2 3 1 4 3 4 5 6 7 7 7 8 7 6 8 8 11 10 8 10 13 14 15 16 17 17 17 17 17 18 18 19 20 21 22 22 22 22 22 22 22
5 5 5 6 6 6 7 6 6 6 6 6 5 5 6 5 4 5 4 5 5 5 4 5 4 6 6 5 5 4 4 4 4 5 5 5 6 7 8 11 11 9 11 8 8 5 7 3 5 4 5 5 5 7 7 6 8 8 11 12 12 13 11 13 15 16 17 17 17 18 18 18 18 18 18 18 19 20 21 22 22 22 22 22 22
4 5 5 5 6 6 5 6 5 5 5 6 6 5 6 5 5 5 5 4 5 5 5 5 5 6 5 6 5 5 5 5 5 5 5 5 6 6 6 7 9 13 10 11 10 8 3 3 2 5 5 4 3 4 4 7 8 11 13 11 11 12 13 14 16 17 18 17 17 18 18 18 19 19 19 19 19 19 20 21 21 22 22 22 21
4 4 4 5 5 5 4 4 5 5 5 5 5 5 5 4 4 4 5 5 5 5 4 5 6 5 5 6 5 6 6 6 5 5 6 6 6 6 6 7 8 10 11 12 11 11 6 1 7 2 5 2 1 3 7 8 10 10 10 10 11 11 13 15 17 19 19 19 19 18 18 19 19 20 20 20 20 20 20 20 21 21 22 22 23
3 3 4 4 4 4 4 4 4 4 5 4 5 5 5 4 4 3 4 5 5 4 4 4 5 5 5 5 6 6 6 6 6 7 6 6 6 6 6 7 7 9 10 13 15 8 10 9 6 6 2 2 6 5 6 9 11 12 11 11 11 11 15 18 18 18 19 20 20 19 20 20 20 20 20 21 21 21 21 21 21 21 22 23 23
4 3 3 3 4 4 3 4 4 4 4 5 5 5 5 4 4 4 4 5 5 5 4 4 5 5 6 6 6 6 6 7 7 7 7 6 6 7 7 7 8 9 10 11 15 11 5 10 10 8 10 10 8 9 6 7 10 12 12 12 12 12 14 14 16 17 18 19 19 19 20 20 20 20 21 21 21 22 22 22 22 22 22 23 23
2 3 3 3 3 4 3 3 4 4 4 4 4 5 4 4 4 4 5 5 5 5 5 5 4 5 6 7 7 6 7 7 7 7 7 7 7 7 8 8 8 9 9 11 13 18 10 10 13 12 12 12 10 11 11 8 8 10 11 11 12 14 12 11 12 15 18 19 19 20 21 21 21 21 21 21 22 23 23 23 23 23 22 22 23
3 3 4 4 4 4 4 4 4 4 4 5 4 4 4 4 4 4 5 5 5 5 5 6 5 6 6 7 7 7 7 8 7 7 7 8 8 8 8 8 9 8 9 10 13 17 14 8 10 11 11 12 13 10 13 11 10 8 9 11 13 12 11 11 11 14 16 18 20 20 20 21 22 22 21 21 21 22 22 23 23 23 22 22 22
3 3 3 2 3 3 3 3 4 4 4 5 5 4 4 5 5 4 4 6 6 6 6 6 6 5 6 7 7 7 7 7 8 8 8 8 8 8 8 8 9 9 9 10 13 13 18 13 11 11 11 10 14 11 11 13 13 12 13 11 10 11 12 12 12 11 14 16 19 20 21 22 22 22 22 21 21 21 22 22 22 22 22 22 22
1 1 2 2 2 2 2 3 3 3 4 4 4 4 5 5 5 5 5 6 6 6 6 7 7 7 7 7 7 7 6 8 8 8 8 8 8 8 10 9 10 10 10 11 12 14 17 17 13 13 11 10 11 13 13 12 14 12 14 13 11 10 10 12 12 11 14 17 19 20 21 22 23 23 22 22 22 21 21 21 22 22 22 22 22
1 1 2 2 2 2 2 3 3 4 4 4 4 4 5 5 5 6 6 6 6 6 6 7 7 7 7 7 7 7 8 8 8 8 7 7 8 8 9 9 10 11 10 10 11 12 14 17 15 12 12 12 11 12 11 12 14 14 12 13 13 12 11 10 11 12 13 18 19 21 22 22 22 23 24 23 22 22 22 22 22 22 22 22 21
1 1 1 1 2 2 2 3 3 4 4 4 5 4 4 5 5 5 6 5 6 6 6 6 6 7 7 7 8 7 8 8 8 7 7 9 9 9 9 9 9 9 9 9 11 11 13 16 16 13 12 13 12 12 12 13 13 14 13 13 13 13 13 12 10 11 16 21 22 24 22 22 23 23 23 23 23 22 22 21 21 21 21 21 21
1 1 1 1 1 2 2 3 3 4 4 4 4 5 5 5 5 5 5 6 6 6 6 6 6 7 7 8 8 8 8 8 8 8 9 10 10 10 10 10 10 10 11 11 10 11 13 14 15 16 13 13 13 10 12 13 13 14 13 13 13 13 13 13 12 9 9 9 9 10 12 15 17 19 21 21 22 22 22 22 21 21 20 19 19
1 0 1 1 1 1 2 3 3 4 4 4 4 4 5 5 5 6 6 6 7 6 6 7 7 7 7 7 8 8 8 8 9 9 10 11 9 11 10 11 10 10 11 10 10 12 12 14 14 13 14 12 11 13 11 12 13 12 14 14 14 11 11 12 13 11 10 11 13 15 16 16 18 17 19 22 24 24 24 23 23 23 20 19 19
1 1 1 1 1 1 2 3 3 4 4 4 4 4 5 5 6 7 7 7 7 7 7 7 7 7 8 8 8 8 8 8 9 11 11 11 10 11 10 10 10 11 11 10 11 10 11 12 13 13 12 13 12 11 11 11 11 10 9 10 13 14 13 13 13 14 13 13 12 11 10 13 14 17 21 22 24 25 25 24 24 23 21 20 21
1 1 1 1 1 2 2 3 3 4 3 3 2 4 6 7 7 8 7 7 8 9 9 9 9 9 8 8 8 8 10 13 16 15 15 13 11 11 10 10 11 11 11 10 10 10 11 11 12 11 12 12 11 11 11 10 12 13 13 12 14 13 13 14 13 12 12 13 12 12 11 11 11 11 11 11 11 13 15 16 16 18 18 18 19
1 1 1 1 1 2 2 3 3 3 3 2 4 9 9 7 8 7 8 8 8 8 9 9 10 9 9 9 9 13 15 16 16 16 15 15 15 13 11 11 11 10 10 11 11 10 10 11 11 12 12 12 12 12 12 12 12 13 14 13 14 14 14 14 15 12 12 14 13 14 12 10 10 11 10 11 10 10 10 10 10 11 11 13 16
1 0 0 0 1 2 2 3 4 4 3 3 8 11 11 12 9 8 8 8 8 8 8 9 10 10 10 10 9 10 11 11 11 13 16 17 16 16 16 16 14 12 11 11 11 11 11 11 11 12 12 14 14 13 13 13 12 12 12 12 12 13 13 13 15 11 8 10 12 14 14 13 13 15 13 13 12 12 12 13 16 15 15 17 19
0 0 0 0 2 2 2 3 4 5 5 6 10 11 12 12 11 8 8 7 8 8 8 9 9 10 10 9 9 8 8 9 12 12 13 14 15 15 16 15 15 16 16 12 12 12 12 13 13 13 13 14 14 12 12 11 12 12 12 13 13 14 14 14 14 14 10 12 14 15 17 14 13 15 16 14 13 13 14 17 21 21 20 20 21
1 1 0 1 2 2 3 4 5 5 6 7 11 12 12 12 12 11 7 8 8 8 9 9 10 10 9 9 9 9 8 13 12 11 11 11 13 15 15 16 16 17 18 20 20 16 14 15 15 15 14 14 15 12 11 13 13 14 13 13 13 13 14 15 14 14 13 12 14 16 18 16 13 14 16 14 13 12 13 16 20 21 23 23 22
1 1 1 1 2 3 3 4 5 6 7 7 12 13 13 13 13 11 8 9 9 9 9 9 9 10 11 11 11 12 11 12 11 11 11 12 13 12 12 12 13 16 20 22 22 24 21 16 15 15 15 14 15 14 14 15 15 14 14 13 13 14 15 15 16 17 15 11 13 15 18 16 11 12 15 14 13 13 13 17 22 23 23 23 22
1 1 1 1 2 3 4 4 5 6 6 10 12 13 13 13 14 12 8 8 8 8 9 9 9 10 11 11 12 13 14 13 11 13 14 15 14 13 13 13 14 15 15 16 16 14 14 14 15 17 16 15 15 17 16 14 15 15 14 15 15 17 17 17 16 15 15 13 14 14 17 16 9 12 13 13 12 13 12 16 23 23 23 23 23
1 1 1 2 2 4 4 5 5 7 7 10 13 13 14 13 14 8 6 7 8 8 9 9 9 10 10 11 12 13 14 15 16 21 19 16 15 14 15 14 15 14 14 16 22 21 19 17 16 16 16 18 21 19 18 16 16 16 14 14 11 12 13 14 14 12 12 11 12 13 15 18 10 11 15 14 12 12 12 12 17 21 22 22 23
1 1 2 2 3 3 5 5 6 6 7 9 12 14 14 14 11 7 7 7 8 8 9 9 10 10 10 11 12 14 15 15 18 22 23 21 15 15 15 15 13 12 12 13 19 24 25 27 28 30 29 28 27 26 25 25 20 17 14 16 15 13 14 15 14 12 12 10 10 12 14 18 11 10 15 15 14 14 14 13 12 17 22 24 24
2 2 2 2 3 3 5 6 5 6 7 10 14 14 14 13 11 8 7 7 8 8 9 9 9 10 12 19 19 17 16 16 21 23 24 21 16 14 16 16 17 15 15 14 13 15 23 25 25 25 25 25 24 24 24 24 26 21 14 16 14 13 15 13 16 13 13 12 11 12 14 14 13 11 13 15 16 12 14 13 13 14 21 23 26
2 2 2 3 3 4 5 6 8 9 8 9 13 14 14 13 10 7 7 7 8 8 9 9 10 11 13 14 19 19 18 19 25 24 24 20 15 14 15 15 14 14 13 15 15 15 14 14 14 14 15 16 15 14 15 21 22 20 15 15 13 13 14 14 14 14 14 11 9 10 13 12 11 11 12 14 15 11 6 10 11 11 10 9 10
Wind_Direction
242 218 221 225 219 218 198 190 193 194 184 186 187 189 203 207 194 166 155 159 153 151 148 130 133 32 347 353 332 341 345 328 336 328 309 309 317 93 43 26 359 355 350 341 333 331 326 326 330 321 313 300 299 299 269 277 290 310 310 243 287 160 181 174 190 241 302 265 317 322 316 333 345 344 334 352 71 58 61 59 63 60 59 51 53
213 224 218 229 231 214 210 201 196 183 191 202 198 200 205 204 166 160 165 177 169 133 218 123 102 31 1 344 340 338 336 334 330 325 324 307 310 27 138 31 14 347 351 344 339 334 330 325 327 329 336 332 320 292 289 257 250 275 290 263 250 190 206 208 207 218 234 268 260 279 315 310 329 335 328 313 172 61 84 71 56 75 69 64 63
273 256 261 249 223 223 212 195 214 207 208 224 188 215 229 273 204 192 198 204 149 141 268 104 106 87 47 341 343 324 329 330 325 322 317 318 322 324 248 155 19 334 333 344 340 338 335 331 331 334 330 336 332 326 315 287 278 247 270 282 285 221 221 209 195 200 209 232 246 268 293 309 306 317 303 290 312 95 82 57 38 40 63 69 73
30 33 27 11 15 50 40 21 36 64 34 357 38 31 24 16 6 18 6 278 101 54 356 330 29 40 12 347 331 325 327 329 320 320 315 320 315 319 322 329 178 226 310 333 344 342 335 333 333 336 335 332 334 335 332 330 319 279 270 287 301 255 234 216 197 189 194 214 230 244 234 277 293 282 286 305 268 168 88 47 70 3 359 65 36
53 58 56 50 52 59 60 51 41 40 46 48 50 49 62 64 64 19 8 5 25 35 4 320 5 29 0 6 332 329 336 324 326 325 329 322 319 320 319 317 317 196 192 274 329 334 338 334 333 333 333 336 334 329 333 334 335 317 274 272 284 286 271 236 200 188 196 208 225 227 235 228 266 281 272 239 285 272 255 208 222 262 272 286 264
46 56 56 64 59 59 66 60 65 73 70 66 66 54 59 52 35 344 39 18 33 29 333 318 34 54 35 24 313 324 319 312 323 326 319 316 319 312 307 313 310 314 317 202 199 301 338 339 334 328 326 332 333 332 329 324 330 333 322 275 266 261 276 318 199 200 205 210 221 223 212 223 239 246 265 271 251 252 265 274 279 273 274 279 276
50 63 53 54 52 46 48 53 57 76 76 67 75 66 61 60 20 26 39 42 38 27 355 339 336 341 332 292 291 296 274 274 273 273 276 297 298 304 309 306 313 315 313 323 182 162 36 350 341 332 332 332 326 325 319 321 324 329 334 317 301 312 323 327 190 206 212 211 219 219 222 233 235 251 256 277 302 290 263 262 260 271 283 274 264
45 60 70 59 58 55 49 49 59 61 58 60 72 78 94 81 44 25 29 36 26 43 14 334 320 314 309 303 300 283 288 277 274 271 275 288 292 296 301 305 310 327 325 304 321 5 101 1 336 334 332 327 325 318 316 313 315 319 322 327 314 312 311 312 290 219 218 215 214 221 226 225 230 247 256 266 276 289 289 276 271 272 275 281 280
48 58 68 64 60 61 58 58 59 59 55 53 58 52 57 70 54 5 41 116 24 60 34 343 331 317 303 303 297 293 278 292 289 310 305 302 306 301 295 303 309 296 300 324 320 318 98 49 319 310 300 310 311 314 312 311 312 314 315 311 320 324 305 307 310 305 245 229 208 223 219 218 222 237 249 255 259 273 285 281 270 266 265 267 268
40 51 62 64 60 58 63 58 64 67 65 61 62 50 54 63 73 44 18 14 38 26 19 352 329 314 311 306 305 290 290 287 315 328 325 333 320 320 328 321 308 313 309 315 319 319 323 300 248 253 247 260 300 306 306 307 308 307 306 306 307 306 305 305 308 310 313 289 254 218 216 216 229 245 262 268 276 278 282 276 271 268 268 269 270
36 35 53 56 59 52 53 46 51 57 59 59 60 52 52 41 57 79 70 51 30 21 349 296 289 283 290 295 280 265 275 284 318 354 356 344 330 329 323 326 326 330 338 328 321 320 312 308 317 320 301 233 297 302 303 305 304 305 303 299 294 295 297 302 305 306 307 309 281 260 258 253 217 223 256 270 272 273 268 271 272 269 268 269 269
28 35 45 47 47 50 52 46 47 50 56 55 47 43 45 50 50 60 78 73 55 345 312 320 279 252 254 272 257 269 255 273 93 94 12 3 356 349 358 341 346 4 355 329 336 322 314 319 318 315 316 307 277 286 297 297 297 297 297 299 296 293 289 288 288 292 301 300 304 295 265 253 260 264 260 263 269 272 271 270 267 268 272 271 268
28 33 38 42 39 41 44 44 46 51 54 52 50 48 41 54 76 60 63 64 36 4 349 311 322 328 294 253 245 206 168 150 139 83 6 4 9 9 5 356 17 14 6 347 327 323 328 331 327 322 324 318 311 288 265 275 277 280 288 291 295 293 292 289 285 287 288 295 298 300 292 266 262 260 261 259 264 265 263 263 272 272 269 269 269
35 34 35 33 34 34 34 32 34 43 47 45 40 37 33 26 11 66 54 60 53 10 4 325 18 349 320 315 248 221 146 132 112 19 352 6 38 31 357 10 24 2 351 340 329 338 350 340 330 321 313 315 315 314 314 296 276 284 297 298 295 293 291 290 291 289 284 282 286 290 297 288 258 258 255 258 261 256 252 255 253 264 267 264 267
43 41 39 35 38 39 37 35 33 36 46 46 41 39 32 29 25 16 57 81 68 39 25 16 353 316 257 283 341 336 162 124 37 341 337 44 27 349 8 35 25 356 340 334 350 352 342 332 325 317 315 313 310 308 300 296 289 297 292 292 291 291 291 290 289 287 285 282 278 280 283 293 290 262 256 255 261 264 250 240 236 242 255 255 252
43 45 46 42 38 39 38 35 34 33 40 44 40 38 32 30 28 28 11 50 39 45 36 31 21 353 6 339 313 310 309 99 349 317 334 197 323 353 43 12 359 354 342 350 346 333 326 329 320 316 314 307 305 302 300 298 303 282 267 270 274 280 288 291 289 288 285 283 281 279 280 282 287 289 265 256 258 264 255 235 240 253 249 249 253
46 46 47 46 42 39 38 38 38 34 38 43 42 35 31 30 26 34 28 22 40 38 45 36 36 26 5 338 323 289 8 333 328 310 119 323 328 9 354 341 356 354 343 329 327 326 326 321 320 314 306 306 300 298 296 299 298 307 295 265 258 268 280 285 289 290 289 285 282 280 280 279 280 282 288 275 263 265 270 253 252 248 240 241 245
48 49 48 48 46 43 40 39 37 36 34 39 39 37 31 29 26 27 28 20 21 34 29 37 45 36 37 39 7 338 325 322 308 311 317 288 354 311 313 350 14 335 323 323 329 329 328 322 317 314 309 302 302 297 299 297 299 301 304 314 306 293 285 285 287 290 293 293 289 284 279 278 276 276 276 279 278 270 271 274 260 234 239 247 249
48 47 47 46 47 43 42 41 39 36 33 36 34 31 29 26 22 30 29 24 24 42 27 11 27 37 23 24 25 359 326 323 335 319 320 351 273 314 314 339 327 323 322 326 332 330 330 325 320 318 315 310 305 304 305 304 300 287 283 285 294 298 297 295 292 291 292 293 294 292 288 281 278 275 271 271 272 271 270 270 260 244 245 249 256
48 45 44 42 42 43 40 41 42 38 35 38 35 27 27 28 27 28 31 33 31 37 34 24 22 14 6 12 5 353 342 335 338 332 313 307 311 309 332 331 323 314 314 333 333 336 329 324 320 319 319 315 311 309 308 307 304 303 305 297 305 308 307 304 301 296 293 292 291 291 291 290 286 280 276 272 268 266 269 269 264 253 246 243 243
46 44 42 40 39 39 38 39 38 35 36 38 34 31 30 28 25 28 27 31 33 28 34 33 26 18 1 8 4 0 352 9 338 341 328 316 307 322 318 318 308 318 328 321 332 336 324 318 316 309 310 312 315 316 313 314 312 312 310 314 319 319 317 316 312 308 304 301 297 293 290 288 287 287 283 279 275 269 265 266 265 260 251 243 242
46 43 43 41 40 39 38 36 35 31 30 29 25 26 25 25 25 27 25 30 29 30 30 19 22 20 12 359 7 356 353 356 354 345 326 303 307 316 319 323 321 320 313 300 330 326 313 308 315 315 314 317 320 319 319 313 317 316 316 325 315 315 314 310 309 306 305 301 299 297 295 292 289 286 286 285 282 277 272 266 266 264 257 250 244
46 44 40 37 41 40 39 37 34 32 29 27 23 20 20 21 19 23 29 24 20 18 24 24 8 17 11 10 9 4 354 342 336 338 327 321 316 311 314 315 311 310 318 320 315 310 303 306 303 309 318 318 319 318 319 318 310 305 311 299 306 306 306 307 308 310 310 309 307 304 300 296 294 291 288 284 282 281 278 274 271 271 269 257 246
46 44 35 31 38 39 39 40 37 31 29 27 24 17 16 19 22 21 23 23 22 18 19 15 10 1 8 3 359 353 347 343 336 327 322 315 310 303 309 316 306 286 303 296 276 261 299 304 292 297 313 310 313 314 304 308 311 349 337 324 307 307 310 312 313 311 308 306 304 305 305 304 302 297 290 286 282 279 278 276 274 274 272 266 253
41 40 35 30 32 36 35 34 32 30 25 23 22 18 12 20 21 20 22 22 18 10 19 10 4 0 349 343 345 344 341 339 325 321 315 310 306 302 303 312 303 306 299 296 298 237 251 260 278 304 307 305 305 299 309 307 311 9 360 322 314 304 300 301 302 301 299 296 296 296 297 297 297 298 297 293 287 282 279 276 275 273 271 269 266
45 40 28 28 36 36 34 35 32 27 24 20 18 17 8 14 21 18 17 19 9 3 11 3 356 356 343 335 341 330 330 336 324 318 319 318 313 312 309 304 294 295 302 297 242 307 228 217 246 262 275 290 299 304 310 313 308 21 349 318 309 296 282 289 294 297 297 297 296 295 293 291 291 292 292 293 292 289 283 279 277 274 272 270 267
49 43 31 34 34 36 33 30 26 22 20 17 10 13 7 6 17 14 12 11 359 0 354 355 347 347 341 340 328 320 326 325 322 314 316 309 305 309 313 314 310 301 306 302 298 244 274 236 227 251 246 267 289 303 312 331 324 324 336 320 307 301 294 296 301 302 302 300 298 296 293 290 288 287 286 287 287 289 289 286 281 277 274 271 271
54 43 35 33 31 29 33 31 23 22 19 17 12 7 2 3 8 9 6 5 346 351 348 343 341 337 330 334 321 318 320 321 316 311 307 306 299 297 300 299 305 309 309 304 305 293 269 265 229 225 239 254 298 330 322 313 302 325 316 307 305 302 302 302 304 305 305 303 300 297 294 291 289 286 285 284 283 282 283 284 284 283 282 282 285
50 40 37 34 32 23 25 25 22 17 15 15 9 3 350 358 4 357 1 353 342 342 343 338 336 328 328 325 319 315 315 319 310 306 307 298 295 293 290 291 297 294 303 300 295 299 314 84 310 209 192 203 250 309 316 307 304 307 301 295 296 296 296 301 303 304 303 302 300 298 295 293 290 288 285 283 280 279 280 279 278 277 276 274 273
48 37 37 32 31 25 23 18 17 12 9 6 0 354 347 354 350 346 355 342 333 332 330 331 325 323 316 315 314 310 313 313 309 307 299 298 294 292 290 289 284 282 288 294 291 282 291 292 265 287 144 279 295 283 278 286 292 297 295 291 288 287 293 296 295 295 295 296 297 296 294 292 289 287 285 283 281 279 278 277 277 276 276 275 274
41 38 31 30 25 17 21 12 9 7 4 2 356 353 347 350 346 346 350 343 333 325 325 327 319 318 316 309 308 305 310 308 305 301 299 296 297 296 292 287 279 274 279 282 288 282 272 292 288 282 293 294 285 277 268 273 285 290 291 289 287 287 286 285 282 282 284 288 291 290 289 288 286 284 283 282 281 280 278 277 277 277 277 276 274
49 36 37 26 21 16 12 14 3 2 0 354 349 346 338 349 340 341 338 331 325 319 320 323 316 310 310 309 307 307 311 308 304 303 302 300 299 294 291 287 283 278 276 278 274 283 287 283 285 287 286 291 294 293 288 277 268 258 281 287 289 292 287 287 280 279 283 284 284 286 288 287 285 284 282 280 279 278 278 277 275 275 275 276 275
42 39 32 25 16 13 10 9 5 356 356 350 348 341 340 338 333 328 321 323 319 315 316 312 311 310 308 304 304 304 307 306 305 307 303 301 297 292 289 288 282 280 280 279 281 287 289 280 282 289 293 297 293 290 292 295 294 286 276 281 284 285 285 285 286 279 277 280 281 284 284 284 284 283 281 279 276 275 275 275 274 273 272 272 272
48 34 32 19 9 3 6 360 355 350 345 344 341 338 337 334 329 328 322 322 320 316 317 313 318 317 310 305 306 306 309 304 301 298 298 298 297 292 289 287 286 284 281 283 282 283 289 295 289 288 291 292 288 294 296 302 301 300 294 286 280 276 277 280 281 280 276 278 277 277 281 283 282 282 283 281 278 276 275 275 275 274 272 271 271
93 61 19 14 2 359 353 354 345 338 340 337 335 333 330 330 325 324 320 318 315 315 315 314 315 314 310 309 308 314 312 306 302 299 298 294 293 295 293 292 288 286 285 281 283 283 287 290 294 294 294 293 290 299 302 298 297 297 295 292 286 278 270 273 276 277 274 274 274 276 278 278 280 281 281 281 280 278 276 273 272 272 271 270 268
84 64 37 2 359 359 343 353 341 335 335 336 332 329 324 322 323 317 315 315 311 310 309 309 312 313 309 309 309 313 307 302 302 303 300 301 302 298 295 293 290 290 289 285 280 282 289 292 294 297 302 301 299 297 299 298 297 295 291 291 290 285 278 271 273 277 279 277 277 277 277 276 276 278 279 279 279 278 276 272 271 269 269 267 266
58 53 23 13 357 351 350 343 330 327 328 326 323 321 321 319 314 312 310 308 307 306 305 305 306 307 307 306 309 309 309 306 305 308 309 307 303 299 296 296 294 296 295 292 291 289 289 289 294 298 302 299 301 301 302 302 299 294 294 291 293 294 292 287 279 274 274 273 271 270 271 273 273 273 274 276 277 277 276 274 271 270 268 267 267
66 103 35 359 330 345 323 326 312 310 317 321 316 316 317 317 311 309 310 310 309 308 305 306 310 310 308 310 309 310 309 308 308 310 310 309 309 302 300 300 301 299 296 294 292 291 289 288 294 300 302 305 308 304 305 302 299 299 299 299 295 292 292 292 287 284 279 280 280 275 270 264 262 258 261 266 271 274 276 276 274 271 267 265 263
100 105 21 355 320 336 315 318 310 314 313 313 313 317 316 315 316 315 314 310 306 305 301 305 306 305 305 304 305 306 305 306 308 312 315 311 306 304 304 304 304 304 301 301 301 299 295 294 294 294 301 304 305 307 307 301 298 296 298 301 297 295 295 300 301 299 297 292 284 278 274 273 274 275 277 275 273 272 273 274 273 270 267 263 262
116 84 9 342 317 316 313 308 306 302 304 305 317 319 322 321 321 315 311 309 308 304 305 305 305 304 302 300 299 299 299 304 310 309 307 304 305 302 304 305 305 306 305 307 306 302 298 297 296 300 302 302 305 300 303 307 304 301 304 308 307 308 304 298 294 298 299 295 294 291 283 280 274 270 265 262 258 259 262 265 265 265 263 262 261
100 101 344 335 314 309 300 292 295 299 296 302 327 332 325 320 317 312 309 305 304 303 305 306 306 303 300 297 296 297 300 298 296 295 294 293 295 297 300 302 304 304 303 302 301 300 298 296 297 300 302 302 305 309 309 306 304 303 310 316 303 299 302 302 300 298 303 302 297 295 294 289 282 278 280 280 277 268 260 252 259 262 262 261 261
105 40 347 322 311 304 307 303 301 292 289 287 299 310 314 314 314 307 305 302 303 302 303 305 304 302 301 300 295 295 296 297 295 293 293 292 288 288 293 299 300 300 300 300 298 298 298 298 299 305 303 301 304 307 305 306 305 304 302 299 295 298 298 295 289 282 284 291 300 296 294 296 298 296 290 288 284 278 278 271 269 269 266 264 261
123 107 292 327 328 307 304 306 303 297 287 283 300 311 313 313 312 306 303 302 300 298 298 300 302 302 303 301 298 300 298 293 293 294 297 295 293 292 292 292 293 294 298 296 295 299 298 294 296 296 295 296 297 299 299 302 302 300 300 304 303 301 300 301 300 304 307 298 290 292 289 292 293 288 285 282 284 284 280 273 272 264 255 258 265
148 94 216 337 310 307 302 299 298 293 290 290 305 310 312 312 312 308 302 298 299 295 297 298 299 301 302 303 300 299 297 297 301 300 296 294 294 294 293 293 292 291 288 288 291 293 290 291 291 290 293 291 293 296 298 301 301 300 301 300 297 295 294 293 292 294 307 317 308 295 287 288 286 281 278 273 274 275 271 270 271 270 261 259 262
199 182 44 322 300 312 302 304 292 290 287 295 305 309 310 311 310 309 299 295 294 292 295 295 295 299 301 300 302 298 297 296 294 291 293 293 294 296 293 291 289 285 282 283 284 283 286 285 285 286 284 289 291 291 293 297 297 294 294 289 288 287 287 286 289 293 300 312 305 295 288 283 278 279 277 277 276 276 274 271 270 269 266 263 261
184 260 267 275 298 301 303 301 293 289 288 292 303 307 309 309 309 308 298 296 291 289 290 292 293 295 297 299 300 300 296 295 292 291 293 296 297 294 290 285 281 280 281 280 280 279 278 276 277 278 282 281 282 285 285 285 285 282 282 280 280 285 288 287 292 293 297 299 291 293 287 283 278 271 273 277 276 273 273 274 275 275 273 269 267
215 242 270 264 283 291 289 291 291 287 281 292 303 307 308 309 308 309 299 294 289 285 288 287 288 290 292 293 292 291 297 296 290 292 294 292 291 288 282 273 268 270 274 277 276 278 277 276 274 274 275 272 272 277 279 277 273 274 275 278 284 289 292 293 289 287 288 287 277 277 280 285 292 291 289 291 289 282 277 275 275 274 272 271 270
212 220 256 256 272 277 285 288 285 285 285 298 305 305 307 308 310 308 297 290 287 285 286 289 287 288 288 289 289 289 289 292 290 290 290 291 289 284 279 271 268 267 265 263 267 267 269 271 272 271 270 271 273 276 278 279 282 287 287 287 290 294 296 293 291 295 290 296 289 281 282 285 295 292 289 289 293 293 292 287 282 279 276 273 271
221 240 249 258 272 279 282 279 281 283 287 294 301 303 306 307 310 300 292 289 288 288 287 289 289 286 285 284 286 286 287 287 289 290 291 292 289 282 274 267 257 256 258 269 268 269 272 273 273 277 280 284 286 287 289 288 288 291 293 294 291 295 291 291 289 290 287 292 288 288 288 287 307 307 292 287 282 277 272 275 278 281 279 278 276
237 236 262 264 258 263 271 276 277 283 285 290 297 301 303 303 304 300 294 289 287 288 290 288 288 287 281 278 274 279 285 287 289 290 290 291 286 284 285 284 281 275 275 274 275 269 267 271 275 279 285 290 294 295 293 290 289 289 287 285 290 289 284 283 286 288 288 284 284 288 282 283 303 306 299 296 289 274 270 269 275 272 270 266 265
242 241 248 261 265 269 261 269 278 279 278 284 291 298 301 302 304 295 291 289 286 286 290 290 282 277 278 277 283 286 285 287 291 294 295 294 291 286 283 281 281 277 277 275 272 273 276 274 269 271 275 273 278 281 281 283 283 282 278 279 284 282 282 284 284 289 287 280 279 287 288 295 307 303 305 302 295 289 289 292 287 292 303 311 294